CW0060 Weather Reports


Display with metric or nautical units.
time (UTC)temp
F
wind
direction
speed
MPH
gust
MPH
rain 1hr
in
rain 24hr
in
rain mn
in
humidity
%
barometer
mb
20260505021705 56 20 1.0 1.0 0.00 0.00 0.00 82 1009.5
20260505021205 56 314 0.0 1.0 0.00 0.00 0.00 81 1009.6
20260505020706 56 222 0.0 1.0 0.00 0.00 0.00 81 1009.7
20260505020205 56 269 0.0 1.0 0.00 0.00 0.00 81 1009.8
20260505015706 56 222 0.0 1.0 0.00 0.00 0.00 81 1009.8
20260505014706 56 46 0.0 1.0 0.00 0.00 0.00 81 1009.7
20260505013206 56 89 0.0 1.0 0.00 0.00 0.00 81 1009.8
20260505012705 56 46 0.0 2.0 0.00 0.00 0.00 81 1009.9
20260505012205 56 46 1.0 2.0 0.00 0.00 0.00 81 1009.9
20260505011714 56 46 1.0 2.0 0.00 0.00 0.00 81 1009.9
20260505011205 56 11 0.0 2.0 0.00 0.00 0.00 80 1009.9
20260505010205 56 46 0.0 2.0 0.00 0.00 0.00 80 1010.0
20260505005705 57 46 0.0 2.0 0.00 0.00 0.00 81 1010.1
20260505005205 57 46 1.0 2.0 0.00 0.00 0.00 81 1010.1
20260505004705 57 46 1.0 2.0 0.00 0.00 0.00 80 1010.3
20260505004205 57 1 1.0 2.0 0.00 0.00 0.00 80 1010.4
20260505003705 57 178 1.0 2.0 0.00 0.00 0.00 80 1010.4
20260505003205 57 68 1.0 2.0 0.00 0.00 0.00 80 1010.5
20260505002205 57 63 0.0 1.0 0.00 0.00 0.00 79 1010.6
20260505001705 57 117 0.0 2.0 0.00 0.00 0.00 79 1010.7
20260505001205 57 46 0.0 2.0 0.00 0.00 0.00 79 1010.6
20260505000705 57 46 1.0 2.0 0.00 0.00 0.00 79 1010.7
20260505000205 57 89 1.0 2.0 0.00 0.00 0.00 79 1010.7
20260504235706 57 18 0.0 2.0 0.00 0.00 0.00 79 1010.8
20260504234706 58 46 1.0 2.0 0.00 0.00 0.00 78 1010.9
20260504234206 58 135 1.0 2.0 0.00 0.00 0.00 78 1010.9
20260504233706 58 160 1.0 2.0 0.00 0.00 0.00 78 1011.0
20260504232705 58 39 0.0 3.0 0.00 0.00 0.00 78 1010.9
20260504232206 58 1 1.0 3.0 0.00 0.00 0.00 77 1011.1
20260504231705 58 89 2.0 3.0 0.00 0.00 0.00 77 1011.0
20260504231205 58 46 2.0 3.0 0.00 0.00 0.00 77 1011.1
20260504230705 58 106 1.0 3.0 0.00 0.00 0.00 77 1011.1
20260504230206 58 127 1.0 2.0 0.00 0.00 0.00 77 1011.0
20260504224206 58 340 1.0 4.0 0.00 0.00 0.00 76 1011.1
20260504223706 58 279 1.0 4.0 0.00 0.00 0.00 76 1011.1
20260504222705 59 340 2.0 4.0 0.00 0.00 0.00 76 1011.2
20260504220704 59 309 2.0 4.0 0.00 0.00 0.00 75 1011.5
20260504220206 59 279 2.0 4.0 0.00 0.00 0.00 74 1011.5
20260504215705 59 35 1.0 3.0 0.00 0.00 0.00 74 1011.5
20260504214706 60 314 1.0 2.0 0.00 0.00 0.00 73 1011.6
20260504213705 60 135 1.0 2.0 0.00 0.00 0.00 73 1011.6
20260504213205 60 81 0.0 1.0 0.00 0.00 0.00 72 1011.6
20260504212205 60 89 0.0 3.0 0.00 0.00 0.00 71 1011.7
20260504211205 60 56 2.0 3.0 0.00 0.00 0.00 71 1011.7
20260504210705 60 32 1.0 3.0 0.00 0.00 0.00 71 1011.7
20260504205705 61 89 1.0 3.0 0.00 0.00 0.00 71 1011.7
20260504205206 61 331 2.0 3.0 0.00 0.00 0.00 71 1011.8
20260504204706 61 344 1.0 2.0 0.00 0.00 0.00 71 1011.7
20260504204205 61 56 0.0 1.0 0.00 0.00 0.00 70 1011.8
20260504203706 62 314 0.0 2.0 0.00 0.00 0.00 70 1011.7
20260504203205 62 269 1.0 2.0 0.00 0.00 0.00 69 1011.7
20260504202206 62 222 1.0 4.0 0.00 0.00 0.00 68 1011.7
20260504201705 62 104 2.0 5.0 0.00 0.00 0.00 67 1011.7
20260504201205 62 35 3.0 5.0 0.00 0.00 0.00 68 1011.6
20260504200705 62 14 3.0 4.0 0.00 0.00 0.00 67 1011.6
20260504200205 62 25 2.0 3.0 0.00 0.00 0.00 67 1011.6
20260504195206 63 23 1.0 3.0 0.00 0.00 0.00 66 1011.7
20260504194207 63 212 2.0 3.0 0.00 0.00 0.00 66 1011.7
20260504193705 63 250 1.0 2.0 0.00 0.00 0.00 65 1011.7
20260504193205 63 233 1.0 2.0 0.00 0.00 0.00 65 1011.7
20260504192705 63 222 1.0 2.0 0.00 0.00 0.00 65 1011.7
20260504192205 63 269 0.0 1.0 0.00 0.00 0.00 65 1011.7
20260504191706 64 46 0.0 1.0 0.00 0.00 0.00 64 1011.6
20260504191205 64 46 0.0 1.0 0.00 0.00 0.00 64 1011.6
20260504190705 64 89 0.0 2.0 0.00 0.00 0.00 64 1011.5
20260504190205 64 135 0.0 2.0 0.00 0.00 0.00 64 1011.3
20260504185705 64 63 1.0 2.0 0.00 0.00 0.00 64 1011.2
20260504185205 64 46 1.0 2.0 0.00 0.00 0.00 64 1011.2
20260504184708 64 28 1.0 2.0 0.00 0.00 0.00 63 1011.2
20260504184206 65 1 1.0 2.0 0.00 0.00 0.00 63 1011.2
20260504183705 65 314 1.0 2.0 0.00 0.00 0.00 62 1011.2
20260504183205 65 331 1.0 3.0 0.00 0.00 0.00 62 1011.1
20260504182706 65 327 1.0 3.0 0.00 0.00 0.00 61 1011.1
20260504182206 65 1 1.0 3.0 0.00 0.00 0.00 61 1011.1
20260504181733 65 321 1.0 3.0 0.00 0.00 0.00 61 1011.0
20260504181206 65 1 1.0 3.0 0.00 0.00 0.00 61 1011.0
20260504180705 65 1 1.0 3.0 0.00 0.00 0.00 62 1010.9
20260504180205 66 1 1.0 4.0 0.00 0.00 0.00 62 1010.9
20260504175705 66 1 1.0 4.0 0.00 0.00 0.00 62 1010.9
20260504175205 66 46 2.0 4.0 0.00 0.00 0.00 62 1011.0
20260504174705 66 32 2.0 5.0 0.00 0.00 0.00 62 1010.9
20260504174205 65 1 2.0 5.0 0.00 0.00 0.00 62 1010.8
20260504173205 66 356 2.0 6.0 0.00 0.00 0.00 61 1010.9
20260504172705 66 6 2.0 6.0 0.00 0.00 0.00 61 1010.9
20260504172206 66 331 2.0 6.0 0.00 0.00 0.00 61 1010.9
20260504171705 66 321 2.0 6.0 0.00 0.00 0.00 61 1010.8
20260504171205 66 314 2.0 6.0 0.00 0.00 0.00 61 1010.9
20260504170705 66 327 3.0 7.0 0.00 0.00 0.00 59 1010.9
20260504170208 66 314 3.0 7.0 0.00 0.00 0.00 59 1010.9
20260504160206 68 314 3.0 10.0 0.00 0.00 0.00 55 1011.4
20260504150705 69 250 5.0 9.0 0.00 0.00 0.00 53 1011.6
20260504150206 69 243 5.0 10.0 0.00 0.00 0.00 54 1011.5
20260504141205 69 28 2.0 5.0 0.00 0.00 0.00 54 1011.8
20260504140705 69 6 2.0 4.0 0.00 0.00 0.00 58 1011.7
20260504140205 69 314 2.0 4.0 0.00 0.00 0.00 56 1011.7
20260504130205 70 272 4.0 8.0 0.00 0.00 0.00 50 1012.0
20260504120206 69 258 4.0 8.0 0.00 0.00 0.00 53 1012.3
20260504110705 68 259 4.0 8.0 0.00 0.00 0.00 52 1012.6
20260504100205 67 197 3.0 7.0 0.00 0.00 0.00 54 1013.3
20260504081705 63 276 2.0 5.0 0.00 0.00 0.00 57 1013.9
20260504081205 62 248 2.0 7.0 0.00 0.00 0.00 57 1013.8
20260504080706 62 89 3.0 7.0 0.00 0.00 0.00 56 1013.8
20260504080205 62 195 3.0 7.0 0.00 0.00 0.00 57 1013.8
20260504070208 53 46 1.0 4.0 0.00 0.00 0.00 83 1013.8
20260504060205 49 178 0.0 2.0 0.00 0.00 0.00 84 1013.7
20260504050705 48 89 1.0 2.0 0.00 0.00 0.00 80 1013.6
20260504050205 48 79 1.0 2.0 0.00 0.00 0.00 80 1013.7
20260504045705 48 124 1.0 2.0 0.00 0.00 0.00 79 1013.6
20260504044705 48 81 1.0 3.0 0.00 0.00 0.00 79 1013.6
20260504044206 48 76 1.0 3.0 0.00 0.00 0.00 78 1013.6
20260504043705 49 60 2.0 3.0 0.00 0.00 0.00 78 1013.5
20260504043205 49 46 1.0 3.0 0.00 0.00 0.00 77 1013.5
20260504042705 49 117 0.0 1.0 0.00 0.00 0.00 77 1013.5
20260504042205 49 1 0.0 2.0 0.00 0.00 0.00 77 1013.4
20260504041708 49 135 1.0 3.0 0.00 0.00 0.00 76 1013.5
20260504041205 49 178 1.0 3.0 0.00 0.00 0.00 76 1013.4
20260504040205 50 72 2.0 4.0 0.00 0.00 0.00 75 1013.4
20260504035705 50 89 2.0 4.0 0.00 0.00 0.00 75 1013.3
20260504035206 50 65 1.0 2.0 0.00 0.00 0.00 75 1013.3
20260504034705 51 39 0.0 2.0 0.00 0.00 0.00 75 1013.4
20260504033705 51 46 1.0 3.0 0.00 0.00 0.00 75 1013.4
20260504033206 51 89 2.0 3.0 0.00 0.00 0.00 75 1013.5
20260504032704 51 81 2.0 4.0 0.00 0.00 0.00 75 1013.4
20260504031705 51 205 1.0 4.0 0.00 0.00 0.00 75 1013.5
20260504031205 51 144 1.0 2.0 0.00 0.00 0.00 75 1013.4
20260504030705 52 164 1.0 3.0 0.00 0.00 0.00 75 1013.4
20260504030206 52 89 0.0 3.0 0.00 0.00 0.00 75 1013.5
20260504025205 52 104 2.0 5.0 0.00 0.00 0.00 75 1013.6
20260504024705 52 170 2.0 5.0 0.00 0.00 0.00 74 1013.6
20260504024206 52 162 1.0 4.0 0.00 0.00 0.00 74 1013.6
20260504023705 52 122 2.0 4.0 0.00 0.00 0.00 74 1013.5
20260504023205 52 155 2.0 4.0 0.00 0.00 0.00 74 1013.3
20260504022705 52 145 2.0 4.0 0.00 0.00 0.00 74 1013.4
20260504022205 53 170 1.0 4.0 0.00 0.00 0.00 74 1013.4